星链-31095 (STARLINK-31095 )

导读

STARLINK-31095是美国SpaceX星链(Starlink)项目中的第二代低轨通信卫星,于2023年12月29日发射入轨,运行在近地轨道,属于星链巨型互联网星座的组成部分。 它依托先进推进系统与通信技术,可提供高速低延迟的互联网服务,能够扩大星链全球覆盖范围,帮助偏远及网络基础设施薄弱地区接入互联网,目前在轨正常工作。

Basic Information
目录编号:
58683
目录名称:
STARLINK-31095
国际标识:
2023-211S
轨道中心:
EARTH
卫星名称:
星链-31095
卫星全名:
星链-31095 (STARLINK-31095 )
卫星状态:
在轨 (已飞行902 天)
发射日期:
2023-12-29 UTC
国别 :
美国 (US)
星等 :
--
Orbit Information
数据来源 国际轨道数据 AOE轨道数据
星历时间 2026-06-16T20:08:06+0800
1天前
查看轨道信息
2026-06-18T04:00:00+0800
12小时前
查看轨道信息
半长轴 6861.189km 6861.204km
偏心率 0.0001045 0.0001342
轨道倾角 42.997° 42.999°
近地点辐角 257.148° 252.781°
升交点赤经 247.524° 240.025°
平近点角 102.926° 217.283°
近地点 482.335km 482.146km
远地点 483.769km 483.988km
周期 94.267分钟 94.267分钟
每日圈数 15.275793 15.275742
Detailed Information
固有亮度:
5
最大亮度:
0.3
卫星平台:
Starlink v2.0 mini
覆盖范围:
全球
运营商:
太空探索技术公司
运营商所在国:
美国
制造商(研发单位):
太空探索技术公司
制造商所在国:
美国
使用方式:
暂无
Satellite Introduction
星链(Starlink)计划是由太空探索技术公司(SpaceX)提出的一个巨型低轨卫星互联网星座项目,计划在2019年至2024年间在太空搭建由约1.2万颗卫星组成的“星链”网络,其中1584颗将部署在地球上空550千米处的近地轨道,并从2020年开始工作。该卫星仍在工作。
2D Orbit Map
3D Orbit Map
Orbit Altitude Analysis Chart
Orbit Inclination Analysis Chart
Orbit Comprehensive Analysis Chart
View Comprehensive Chart